Home   Weather   Bad Ems   Past weeks
Flag for Germany

Past Weather in Bad Ems, Rhineland-Palatinate, Germany — Yesterday and Last 2 Weeks

Now
43 °F

Passing clouds.


Feels Like: 39 °F
Forecast: 62 / 40 °F
Wind: 6 mph from North

Location: Buechel

Current Time: Sep 18, 2019 at 7:25:17 am

Latest Report: Sep 18, 2019 at 6:20 am


Visibility: N/A

Pressure: 30.27 "Hg

Humidity: 87%

Dew Point: 39 °F

Location of Bad EmsLocation

Past Weather in Bad Ems — Graph

°F

Bad Ems Temperature Yesterday

Maximum temperature yesterday: 59 °F (at 1:20 pm)
Minimum temperature yesterday: 50 °F (at 11:20 pm)
Average temperature yesterday: 55 °F

High & Low Weather Summary for the Past Weeks

 TemperatureHumidityPressure
High75 °F (Sep 15, 4:20 pm)100% (Sep 6, 5:20 am)30.54 "Hg (Sep 6, 5:20 am)
Low43 °F (Sep 6, 5:00 am)34% (Sep 15, 4:20 pm)29.95 "Hg (Sep 9, 5:20 pm)
Average56 °F74%30.21 "Hg
* Reported Sep 3 6:20 am — Sep 18 6:20 am, Bad Ems. Weather by CustomWeather, © 2019

Note: Actual official high and low records may vary slightly from our data, if they occured in-between our weather recording intervals... More about our weather records

Advertising

Bad Ems Weather History for the Previous 24 Hours

Scroll right to see more
 ConditionsComfort  
Time TempWeatherWind HumidityBarometerVisibility
6:20 am
Wed, Sep 18
43 °FPassing clouds.6 mph87%30.27 "HgN/A
5:20 am43 °FQuite cool.5 mph87%30.27 "HgN/A
5:02 am45 °FQuite cool.6 mph81%30.27 "HgN/A
4:20 am45 °FQuite cool.3 mph81%30.24 "HgN/A
3:20 am45 °FQuite cool.5 mph81%30.24 "HgN/A
2:20 am45 °FQuite cool.3 mph76%30.24 "HgN/A
1:20 am46 °FCool.6 mph76%30.24 "HgN/A
12:20 am48 °FCool.8 mph71%30.24 "HgN/A
11:20 pm
Tue, Sep 17
50 °FCool.10 mph67%30.24 "HgN/A
10:20 pm52 °FCool.10 mph72%30.21 "HgN/A
9:20 pm54 °FCool.8 mph67%30.21 "HgN/A
8:20 pm54 °FCool.8 mph67%30.18 "HgN/A
7:20 pm55 °FCool.7 mph63%30.15 "HgN/A
6:20 pm57 °FScattered clouds.9 mph55%30.15 "HgN/A
5:20 pm59 °FScattered clouds.9 mph51%30.15 "HgN/A
4:20 pm59 °FScattered clouds.12 mph55%30.15 "HgN/A
3:20 pm59 °FScattered clouds.9 mph55%30.15 "HgN/A
2:20 pm59 °FScattered clouds.12 mph55%30.15 "HgN/A
1:20 pm59 °FScattered clouds.10 mph55%30.15 "HgN/A
12:20 pm57 °FScattered clouds.9 mph59%30.18 "HgN/A
11:20 am57 °FScattered clouds.7 mph63%30.18 "HgN/A
10:20 am55 °FScattered clouds.8 mph67%30.15 "HgN/A
9:20 am54 °FScattered clouds.7 mph72%30.15 "HgN/A
8:58 am52 °FScattered clouds.6 mph82%30.15 "HgN/A
8:20 am52 °FPartly sunny.8 mph88%30.15 "HgN/A
7:20 am52 °FPartly sunny.5 mph94%30.12 "HgN/A
Weather by CustomWeather, © 2019

See weather overview